Terminal Aerodrome Forecast
Issued by NWS Atlanta, GA

Home | Current Version | Previous Version | Text Only | Print | Product List | Glossary On
Versions: 1 2 3 4 5 6 7 8 9 10 11 12 13 14 15 16 17 18 19 20 21 22 23 24
000
FTAK31 PAJN 310544
TAFAHN
TAF
PAHN 310544Z 3106/0106 08007KT P6SM SCT025 BKN060
     FM311000 VRB04KT P6SM SCT060 BKN200
     FM312100 15008KT P6SM BKN060 BKN150
      AMD LTD TO CLD VIS AND WIND=

USA.gov is the U.S. government's official web portal to all federal, state and local government web resources and services.